Regional Weather Roundup
Issued by NWS Sterling, VA

Home | Current Version | Previous Version | Graphics & Text | Print | Product List | Glossary On
Versions: 1 2 3 4 5 6 7 8 9 10 11 12 13 14 15 16 17 18 19 20 21 22 23 24 25 26 27 28 29 30 31 32 33 34 35 36 37 38 39 40 41 42 43 44 45 46 47 48 49 50
000
ASUS41 KLWX 220810
RWRLWX

REGIONAL WEATHER ROUNDUP
NATIONAL WEATHER SERVICE BALTIMORE MD/WASHINGTON DC
400 AM EDT FRI AUG 22 2014

Note: "FAIR" indicates few or no clouds below 12,000 feet
with no significant weather and/or obstructions to visibility.
 TC=TEMPERATURE CELSIUS

 * =Non NWS site. Station does not report precipitation (e.g. rain,
    snow, etc.), thunder, or fog.

DCZ001-MDZ009-015-VAZ040>042-051-053>054-220900-
WASHINGTON METRO
  /KDAA//-FT BELVOIR

CITY           SKY/WX    TMP DP  RH WIND       PRES   REMARKS
WASHINGTON NAT MOCLDY    76  65  68 W3        29.96F
DULLES         MOCLDY    67  66  97 CALM      29.97F
ANDREWS AFB    MOCLDY    73  67  81 NW2       29.96F
QUANTICO       MOCLDY    76  66  71 N10       29.96F
COLLEGE PARK*  MOCLDY    72  70  94 CALM      29.96S
LEESBURG*      MOCLDY    70  68  94 CALM      29.99S
MANASSAS*      MOCLDY    70  70 100 CALM      29.97F
GAITHERSBURG*  PTCLDY    66  64  94 W5        30.01F

$$

MDZ006>007-011-014-220900-
BALTIMORE METRO

CITY           SKY/WX    TMP DP  RH WIND       PRES   REMARKS
BWI AIRPORT    PTCLDY    70  67  90 CALM      29.95S
MD SCIENCE CTR   N/A     74  67  78 MISG      29.96S
MARTIN STATE   CLOUDY    72  72 100 W5        29.97R FOG
ANNAPOLIS      PTCLDY    73  68  84 W6        29.95S
FORT MEADE*    PTCLDY    66  64  94 CALM      29.98S

$$

MDZ012-015-019>023-220900-
MARYLAND EASTERN SHORE

CITY           SKY/WX    TMP DP  RH WIND       PRES   REMARKS
OCEAN CITY     LGT RAIN  76  72  87 SW12      29.94S
SALISBURY      LGT RAIN  74  70  87 CALM      29.96R
BAY BRIDGE AP*   N/A     75  68  78 W7        29.95S
CAMBRIDGE*     PTCLDY    73  70  88 CALM      29.94F
EASTON*        PTCLDY    73  73 100 CALM      29.99S FOG

$$

MDZ017>025-220900-
SOUTHERN MARYLAND

CITY           SKY/WX    TMP DP  RH WIND       PRES   REMARKS
PATUXENT RIVER CLOUDY    76  70  82 NW10      29.95S
ST INIGOES     CLOUDY    76  69  79 VRB6      29.94F
LEONARDTOWN*   CLOUDY    73  68  83 CALM      29.97F

$$

MDZ003>005-220900-
NORTH CENTRAL MARYLAND

CITY           SKY/WX    TMP DP  RH WIND       PRES   REMARKS
FREDERICK*     PTCLDY    68  68 100 CALM      29.99F
HAGERSTOWN APT CLEAR     68  65  90 CALM      29.98F FOG
WESTMINSTER*   PTCLDY    68  66  94 CALM      29.99S

$$

MDZ501>502-220900-
WESTERN MARYLAND

CITY           SKY/WX    TMP DP  RH WIND       PRES   REMARKS
OAKLAND*       CLOUDY    63 N/A N/A W3        30.09S FOG
CUMBERLAND*    MOCLDY    68  64  88 CALM      30.04S

$$

VAZ025>031-220900-
SHENANDOAH VALLEY

CITY           SKY/WX    TMP DP  RH WIND       PRES   REMARKS
WINCHESTER*    CLOUDY    68  66  94 CALM      29.98F
STAUNTON*      CLOUDY    67  64  90 CALM      30.04S

$$

WVZ021-048>050-054>055-220900-
EASTERN WEST VIRGINIA PANHANDLE

CITY           SKY/WX    TMP DP  RH WIND       PRES   REMARKS
MARTINSBURG    MOCLDY    69  63  81 SW3       29.98F
PETERSBURG*    NOT AVBL

$$

VAZ036>039-050-220900-
CENTRAL FOOTHILLS

CITY           SKY/WX    TMP DP  RH WIND       PRES   REMARKS
CHARLOTTESVILL MOCLDY    72  66  81 CALM      29.98F
ORANGE*        PTCLDY    70  68  94 N3        29.99S

$$

VAZ055>057-220900-
NORTH AND CENTRAL PIEDMONT

CITY           SKY/WX    TMP DP  RH WIND       PRES   REMARKS
FREDERICKSBRG* MOCLDY    74  74 100 CALM      29.95F
STAFFORD*      CLOUDY    71  71 100 CALM      30.00F

$$

NCZ024-NYZ072-PAZ021-071-VAZ022-071-220900-
OTHER REGIONAL OBSERVATIONS

CITY           SKY/WX    TMP DP  RH WIND       PRES   REMARKS
NEW YORK CITY  CLOUDY    67  64  90 CALM      30.04F FOG
PHILADELPHIA   CLOUDY    70  66  87 E7        29.99S
PITTSBURGH     CLOUDY    68  67  96 SE5       29.99F FOG
ROANOKE        MOCLDY    70  65  84 W6        30.05F
RICHMOND       PTCLDY    76  69  79 N3        29.96F
RALEIGH        PTCLDY    73  70  90 CALM      30.01F

$$

ANZ530>537-220900-
MARINE OBSERVATIONS

STATION/POSITION TIME  TEMP    WIND        PRES
                       AIR SEA DIR/SP/G
                 (UTC) (F)     (DEG/KT/KT) (MB)
THOMAS PT LIGHT  0800   75 78  280/  7/  8 1014.7F
BALT KEY BRIDGE  0800   75     330/  7/  8 1014.1R
COVE POINT       0800   75     320/  8/ 10 1014.3S
LEWISETTA        0800   76 80  300/  4/  5 1013.8F
SOLOMONS ISLAND  0800      80                N/A
PINEY POINT      0800          360/ 11/ 11   N/A

$$



USA.gov is the U.S. government's official web portal to all federal, state and local government web resources and services.